Weather History for Boone, NC

Change the Weather History Date:

Saturday, May 25, 2013

  Actual Average (KGEV) Record (KGEV)
Temperature  
Mean Temperature 53 °F -  
Max Temperature 64 °F 73 °F 84 °F (1975)
Min Temperature 42 °F 49 °F 37 °F (1983)
Degree Days  
Heating Degree Days 12    
Growing Degree Days 3 (Base 50)    
Moisture  
Dew Point 32 °F    
Average Humidity 49    
Maximum Humidity 76    
Minimum Humidity 21    
Precipitation  
Precipitation 0.00 in - - ()
Sea Level Pressure  
Sea Level Pressure 30.28 in    
Wind  
Wind Speed 12 mph (WNW)    
Max Wind Speed 23 mph    
Max Gust Speed 32 mph    
Visibility 10 miles    
Events      
Averages and records for this station are not official NWS values.
T = Trace of Precipitation, MM = Missing Value Source: NWS Daily Summary

Daily Weather History Graph

Daily Weather History Graph

Search for Another Location

Airport:

Trip Planner

Search our weather history database for the weather conditions in past years. The results will help you decide how hot, cold, wet, or windy it might be!

Date:

Astronomy

May. 25, 2013 Rise Set
Actual Time 6:13 AM EDT 8:33 PM EDT
Civil Twilight 5:44 AM EDT 9:03 PM EDT
Nautical Twilight 5:08 AM EDT 9:39 PM EDT
Astronomical Twilight 4:28 AM EDT 10:19 PM EDT
Moon 9:20 PM EDT (5/25) 6:38 AM EDT (5/25)
Length of Visible Light 15h 19m
Length of Day
14h 20m
Full, 100% of the Moon is Illuminated
May 25
Full
May 31
Last Quarter
Jun 8
New
Jun 16
First Quarter
Jun 23
Full

Hourly Weather History & Observations

Time (EDT) Temp. Windchill Dew Point Humidity Pressure Visibility Wind Dir Wind Speed Gust Speed Precip Events Conditions
12:15 AM 46.8 °F - 32.9 °F 59% 30.25 in 10.0 mi NW 13.8 mph 21.9 mph N/A   Clear
12:35 AM 45.9 °F 40.0 °F 33.1 °F 61% 30.25 in 10.0 mi NW 12.7 mph - N/A   Clear
12:55 AM 45.5 °F 41.3 °F 33.4 °F 63% 30.26 in 10.0 mi WNW 8.1 mph - N/A   Clear
1:15 AM 45.1 °F 40.3 °F 33.4 °F 64% 30.26 in 10.0 mi WNW 9.2 mph - N/A   Clear
1:35 AM 45.0 °F 41.2 °F 33.8 °F 65% 30.26 in 10.0 mi NW 6.9 mph - N/A   Clear
1:55 AM 44.6 °F 40.2 °F 33.8 °F 66% 30.26 in 10.0 mi NW 8.1 mph - N/A   Clear
2:15 AM 44.4 °F 40.0 °F 33.6 °F 66% 30.26 in 10.0 mi WNW 8.1 mph - N/A   Clear
2:35 AM 43.9 °F 38.8 °F 33.8 °F 68% 30.26 in 10.0 mi WNW 9.2 mph - N/A   Clear
2:55 AM 43.7 °F 39.7 °F 33.8 °F 68% 30.26 in 10.0 mi WNW 6.9 mph - N/A   Clear
3:15 AM 43.2 °F 39.7 °F 34.0 °F 70% 30.27 in 10.0 mi WNW 5.8 mph - N/A   Clear
3:35 AM 43.2 °F 39.0 °F 34.0 °F 70% 30.27 in 10.0 mi NW 6.9 mph - N/A   Clear
3:55 AM 42.8 °F 36.6 °F 34.2 °F 72% 30.27 in 10.0 mi WNW 11.5 mph - N/A   Clear
4:15 AM 43.0 °F 37.2 °F 34.0 °F 71% 30.27 in 10.0 mi NW 10.4 mph - N/A   Clear
4:35 AM 42.6 °F 36.8 °F 34.2 °F 72% 30.27 in 10.0 mi WNW 10.4 mph - N/A   Clear
4:55 AM 42.6 °F 36.3 °F 34.0 °F 71% 30.27 in 10.0 mi WNW 11.5 mph - N/A   Clear
5:15 AM 42.3 °F 35.1 °F 33.8 °F 72% 30.28 in 10.0 mi WNW 13.8 mph - N/A   Clear
5:35 AM 42.3 °F 35.5 °F 33.8 °F 72% 30.28 in 10.0 mi WNW 12.7 mph 19.6 mph N/A   Clear
5:55 AM 42.1 °F 34.2 °F 33.8 °F 72% 30.28 in 10.0 mi NW 16.1 mph 19.6 mph N/A   Clear
6:15 AM 42.1 °F 33.3 °F 33.8 °F 72% 30.28 in 10.0 mi NW 19.6 mph 25.3 mph N/A   Clear
6:35 AM 42.3 °F 33.8 °F 33.3 °F 70% 30.28 in 10.0 mi NW 18.4 mph 27.6 mph N/A   Clear
6:55 AM 42.4 °F 35.7 °F 33.1 °F 69% 30.29 in 10.0 mi WNW 12.7 mph 23.0 mph N/A   Clear
7:15 AM 42.8 °F 35.4 °F 32.9 °F 68% 30.30 in 10.0 mi NW 15.0 mph 23.0 mph N/A   Clear
7:35 AM 43.5 °F 35.5 °F 32.4 °F 65% 30.30 in 10.0 mi WNW 18.4 mph 25.3 mph N/A   Clear
7:55 AM 45.1 °F 37.6 °F 32.2 °F 60% 30.31 in 10.0 mi WNW 18.4 mph 26.5 mph N/A   Clear
8:15 AM 46.0 °F 38.8 °F 32.0 °F 58% 30.31 in 10.0 mi WNW 18.4 mph 31.1 mph N/A   Clear
8:35 AM 47.3 °F - 32.0 °F 55% 30.30 in 10.0 mi WNW 20.7 mph 26.5 mph N/A   Clear
8:55 AM 48.6 °F - 31.8 °F 52% 30.31 in 10.0 mi WNW 23.0 mph 31.1 mph N/A   Clear
9:15 AM 50.0 °F - 31.3 °F 49% 30.32 in 10.0 mi WNW 19.6 mph 32.2 mph N/A   Clear
9:35 AM 51.1 °F - 30.7 °F 46% 30.30 in 10.0 mi WNW 11.5 mph 26.5 mph N/A   Clear
9:55 AM 52.0 °F - 30.9 °F 45% 30.30 in 10.0 mi NW 12.7 mph 24.2 mph N/A   Clear
10:15 AM 53.1 °F - 31.3 °F 43% 30.31 in 10.0 mi WNW 13.8 mph 24.2 mph N/A   Clear
10:35 AM 54.0 °F - 29.7 °F 39% 30.32 in 10.0 mi WNW 15.0 mph 26.5 mph N/A   Clear
10:55 AM 55.4 °F - 28.0 °F 35% 30.32 in 10.0 mi West 18.4 mph - N/A   Clear
11:15 AM 57.4 °F - 28.8 °F 34% 30.32 in 10.0 mi West 15.0 mph 21.9 mph N/A   Clear
11:35 AM 56.5 °F - 28.6 °F 34% 30.32 in 10.0 mi WNW 13.8 mph 18.4 mph N/A   Clear
11:55 AM 57.9 °F - 28.6 °F 33% 30.31 in 10.0 mi WNW 15.0 mph 19.6 mph N/A   Clear
12:15 PM 59.5 °F - 26.6 °F 28% 30.30 in 10.0 mi West 17.3 mph 21.9 mph N/A   Clear
12:35 PM 59.9 °F - 27.9 °F 30% 30.30 in 10.0 mi WNW 15.0 mph 23.0 mph N/A   Clear
12:55 PM 61.0 °F - 29.1 °F 30% 30.30 in 10.0 mi WNW 15.0 mph 19.6 mph N/A   Clear
1:15 PM 61.9 °F - 28.9 °F 29% 30.29 in 10.0 mi West 16.1 mph 20.7 mph N/A   Clear
1:35 PM 62.6 °F - 29.5 °F 29% 30.29 in 10.0 mi WNW 10.4 mph 19.6 mph N/A   Clear
1:55 PM 63.5 °F - 29.1 °F 27% 30.28 in 10.0 mi WNW 12.7 mph 20.7 mph N/A   Clear
2:15 PM 63.3 °F - 28.0 °F 26% 30.28 in 10.0 mi West 9.2 mph 16.1 mph N/A   Clear
2:35 PM 64.6 °F - 30.0 °F 27% 30.27 in 10.0 mi West 11.5 mph 17.3 mph N/A   Clear
2:55 PM 64.9 °F - 30.0 °F 27% 30.27 in 10.0 mi WNW 13.8 mph 24.2 mph N/A   Clear
3:15 PM 64.8 °F - 27.1 °F 24% 30.27 in 10.0 mi WNW 12.7 mph 27.6 mph N/A   Clear
3:35 PM 64.0 °F - 27.1 °F 25% 30.27 in 10.0 mi WNW 15.0 mph 20.7 mph N/A   Clear
3:55 PM 64.8 °F - 28.6 °F 26% 30.28 in 10.0 mi WNW 16.1 mph 28.8 mph N/A   Clear
4:15 PM 63.1 °F - 28.8 °F 27% 30.28 in 10.0 mi WNW 18.4 mph 28.8 mph N/A   Clear
4:35 PM 64.2 °F - 31.1 °F 29% 30.27 in 10.0 mi WNW 12.7 mph 18.4 mph N/A   Clear
4:55 PM 63.3 °F - 28.8 °F 27% 30.26 in 10.0 mi NW 13.8 mph 20.7 mph N/A   Clear
5:15 PM 63.3 °F - 26.6 °F 25% 30.26 in 10.0 mi West 15.0 mph 20.7 mph N/A   Clear
5:35 PM 63.0 °F - 23.9 °F 23% 30.26 in 10.0 mi WNW 11.5 mph 25.3 mph N/A   Clear
5:55 PM 63.0 °F - 23.4 °F 22% 30.26 in 10.0 mi NW 13.8 mph 21.9 mph N/A   Clear
6:15 PM 62.6 °F - 21.7 °F 21% 30.25 in 10.0 mi WNW 18.4 mph 24.2 mph N/A   Clear
6:35 PM 62.2 °F - 26.8 °F 26% 30.25 in 10.0 mi WNW 15.0 mph 24.2 mph N/A   Clear
6:55 PM 61.9 °F - 31.3 °F 32% 30.26 in 10.0 mi NW 8.1 mph 16.1 mph N/A   Clear
7:15 PM 61.3 °F - 33.8 °F 36% 30.26 in 10.0 mi WNW 10.4 mph 16.1 mph N/A   Clear
7:35 PM 60.1 °F - 36.5 °F 41% 30.26 in 10.0 mi WNW 9.2 mph 18.4 mph N/A   Clear
7:55 PM 59.7 °F - 36.9 °F 43% 30.26 in 10.0 mi West 5.8 mph - N/A   Clear
8:15 PM 59.2 °F - 37.2 °F 44% 30.26 in 10.0 mi WNW 8.1 mph - N/A   Clear
8:35 PM 58.1 °F - 38.1 °F 47% 30.26 in 10.0 mi WNW 8.1 mph - N/A   Clear
8:55 PM 57.4 °F - 39.0 °F 50% 30.26 in 10.0 mi WNW 6.9 mph - N/A   Clear
9:15 PM 56.7 °F - 39.4 °F 52% 30.26 in 10.0 mi WNW 5.8 mph - N/A   Clear
9:35 PM 55.8 °F - 40.1 °F 56% 30.25 in 10.0 mi WNW 5.8 mph - N/A   Clear
9:55 PM 54.1 °F - 40.5 °F 60% 30.26 in 10.0 mi WNW 6.9 mph - N/A   Clear
10:15 PM 53.6 °F - 41.0 °F 62% 30.26 in 10.0 mi WNW 5.8 mph - N/A   Clear
10:35 PM 52.7 °F - 40.1 °F 62% 30.25 in 10.0 mi WNW 5.8 mph - N/A   Clear
10:55 PM 50.0 °F - 40.8 °F 71% 30.26 in 10.0 mi Calm Calm - N/A   Clear
11:15 PM 48.2 °F - 41.0 °F 76% 30.25 in 10.0 mi Calm Calm - N/A   Clear
11:35 PM 51.1 °F - 38.8 °F 63% 30.26 in 10.0 mi NNW 3.5 mph - N/A   Clear
11:55 PM 52.9 °F - 33.4 °F 48% 30.27 in 10.0 mi WNW 9.2 mph - N/A   Clear